| time (UTC) | temp F | wind direction | speed MPH | gust MPH | rain 1hr in | rain 24hr in | rain mn in | humidity % | barometer mb |
| 20260507003918 | 88 | 64 | 1.0 | 3.0 | 0.00 | 0.00 | 0.00 | 20 | 1011.6 |
| 20260507003413 | 88 | 85 | 1.0 | 5.0 | 0.00 | 0.00 | 0.00 | 20 | 1011.7 |
| 20260507002908 | 88 | 101 | 0.0 | 4.0 | 0.00 | 0.00 | 0.00 | 20 | 1011.8 |
| 20260507002404 | 87 | 104 | 3.0 | 5.0 | 0.00 | 0.00 | 0.00 | 20 | 1011.9 |
| 20260507001902 | 87 | 102 | 1.0 | 5.0 | 0.00 | 0.00 | 0.00 | 20 | 1011.7 |
| 20260507001358 | 91 | 128 | 0.0 | 3.0 | 0.00 | 0.00 | 0.00 | 19 | 1011.7 |
| 20260507000856 | 90 | 113 | 1.0 | 3.0 | 0.00 | 0.00 | 0.00 | 19 | 1011.8 |
| 20260507000350 | 90 | 88 | 2.0 | 4.0 | 0.00 | 0.00 | 0.00 | 20 | 1011.8 |
| 20260506235847 | 89 | 56 | 2.0 | 5.0 | 0.00 | 0.00 | 0.00 | 20 | 1011.7 |
| 20260506235344 | 90 | 110 | 1.0 | 3.0 | 0.00 | 0.00 | 0.00 | 19 | 1011.7 |
| 20260506234840 | 88 | 98 | 0.0 | 3.0 | 0.00 | 0.00 | 0.00 | 20 | 1011.7 |
| 20260506234338 | 90 | 74 | 2.0 | 4.0 | 0.00 | 0.00 | 0.00 | 19 | 1011.8 |
| 20260506233836 | 91 | 67 | 1.0 | 3.0 | 0.00 | 0.00 | 0.00 | 20 | 1011.8 |
| 20260506233331 | 90 | 50 | 0.0 | 3.0 | 0.00 | 0.00 | 0.00 | 19 | 1011.8 |
| 20260506232829 | 89 | 67 | 0.0 | 3.0 | 0.00 | 0.00 | 0.00 | 19 | 1012.1 |
| 20260506232324 | 88 | 98 | 2.0 | 6.0 | 0.00 | 0.00 | 0.00 | 20 | 1012.0 |
| 20260506231821 | 87 | 87 | 2.0 | 5.0 | 0.00 | 0.00 | 0.00 | 20 | 1012.1 |
| 20260506231319 | 87 | 138 | 2.0 | 5.0 | 0.00 | 0.00 | 0.00 | 20 | 1012.0 |
| 20260506230816 | 89 | 181 | 3.0 | 5.0 | 0.00 | 0.00 | 0.00 | 20 | 1012.3 |
| 20260506230312 | 89 | 93 | 3.0 | 3.0 | 0.00 | 0.00 | 0.00 | 19 | 1012.3 |
| 20260506225808 | 87 | 73 | 2.0 | 3.0 | 0.00 | 0.00 | 0.00 | 19 | 1012.4 |
| 20260506225306 | 87 | 118 | 0.0 | 3.0 | 0.00 | 0.00 | 0.00 | 20 | 1012.1 |
| 20260506224803 | 87 | 81 | 2.0 | 4.0 | 0.00 | 0.00 | 0.00 | 20 | 1012.5 |
| 20260506224300 | 86 | 112 | 2.0 | 3.0 | 0.00 | 0.00 | 0.00 | 21 | 1012.5 |
| 20260506223756 | 86 | 157 | 0.0 | 5.0 | 0.00 | 0.00 | 0.00 | 20 | 1012.4 |
| 20260506223251 | 88 | 74 | 1.0 | 2.0 | 0.00 | 0.00 | 0.00 | 19 | 1012.6 |
| 20260506222748 | 87 | 103 | 1.0 | 5.0 | 0.00 | 0.00 | 0.00 | 20 | 1012.4 |
| 20260506222244 | 88 | 108 | 2.0 | 2.0 | 0.00 | 0.00 | 0.00 | 20 | 1012.7 |
| 20260506221737 | 87 | 81 | 0.0 | 2.0 | 0.00 | 0.00 | 0.00 | 21 | 1012.6 |
| 20260506221234 | 86 | 129 | 1.0 | 4.0 | 0.00 | 0.00 | 0.00 | 20 | 1012.7 |
| 20260506220731 | 86 | 121 | 3.0 | 5.0 | 0.00 | 0.00 | 0.00 | 20 | 1012.9 |
| 20260506220226 | 87 | 93 | 3.0 | 4.0 | 0.00 | 0.00 | 0.00 | 20 | 1012.9 |
| 20260506215723 | 87 | 114 | 3.0 | 3.0 | 0.00 | 0.00 | 0.00 | 20 | 1012.8 |
| 20260506215218 | 85 | 2 | 0.0 | 3.0 | 0.00 | 0.00 | 0.00 | 22 | 1012.9 |
| 20260506214715 | 86 | 307 | 1.0 | 2.0 | 0.00 | 0.00 | 0.00 | 22 | 1013.1 |
| 20260506214213 | 85 | 95 | 0.0 | 3.0 | 0.00 | 0.00 | 0.00 | 21 | 1013.2 |
| 20260506213711 | 84 | 90 | 2.0 | 5.0 | 0.00 | 0.00 | 0.00 | 21 | 1013.4 |
| 20260506213208 | 84 | 108 | 2.0 | 6.0 | 0.00 | 0.00 | 0.00 | 22 | 1013.4 |
| 20260506212705 | 85 | 117 | 3.0 | 3.0 | 0.00 | 0.00 | 0.00 | 21 | 1013.4 |
| 20260506212200 | 84 | 89 | 2.0 | 8.0 | 0.00 | 0.00 | 0.00 | 22 | 1013.4 |
| 20260506211656 | 83 | 36 | 1.0 | 6.0 | 0.00 | 0.00 | 0.00 | 22 | 1013.7 |
| 20260506211152 | 83 | 104 | 0.0 | 3.0 | 0.00 | 0.00 | 0.00 | 21 | 1013.7 |
| 20260506210649 | 82 | 107 | 0.0 | 4.0 | 0.00 | 0.00 | 0.00 | 24 | 1013.8 |
| 20260506210146 | 83 | 125 | 0.0 | 4.0 | 0.00 | 0.00 | 0.00 | 21 | 1013.9 |
| 20260506205644 | 83 | 65 | 2.0 | 3.0 | 0.00 | 0.00 | 0.00 | 21 | 1014.0 |
| 20260506205138 | 83 | 113 | 1.0 | 5.0 | 0.00 | 0.00 | 0.00 | 22 | 1014.0 |
| 20260506204636 | 82 | 107 | 1.0 | 5.0 | 0.00 | 0.00 | 0.00 | 22 | 1014.1 |
| 20260506204133 | 83 | 79 | 2.0 | 5.0 | 0.00 | 0.00 | 0.00 | 22 | 1014.3 |
| 20260506203631 | 83 | 99 | 3.0 | 4.0 | 0.00 | 0.00 | 0.00 | 22 | 1014.2 |
| 20260506203127 | 82 | 129 | 0.0 | 3.0 | 0.00 | 0.00 | 0.00 | 23 | 1014.1 |
| 20260506202626 | 81 | 87 | 2.0 | 4.0 | 0.00 | 0.00 | 0.00 | 22 | 1014.3 |
| 20260506202121 | 81 | 99 | 2.0 | 8.0 | 0.00 | 0.00 | 0.00 | 22 | 1014.3 |
| 20260506201619 | 81 | 103 | 3.0 | 4.0 | 0.00 | 0.00 | 0.00 | 22 | 1014.3 |
| 20260506201115 | 81 | 114 | 2.0 | 4.0 | 0.00 | 0.00 | 0.00 | 22 | 1014.4 |
| 20260506200612 | 80 | 230 | 1.0 | 2.0 | 0.00 | 0.00 | 0.00 | 24 | 1014.6 |
| 20260506200109 | 82 | 90 | 2.0 | 3.0 | 0.00 | 0.00 | 0.00 | 23 | 1014.6 |
| 20260506195605 | 82 | 98 | 2.0 | 2.0 | 0.00 | 0.00 | 0.00 | 24 | 1014.4 |
| 20260506195102 | 81 | 171 | 0.0 | 2.0 | 0.00 | 0.00 | 0.00 | 25 | 1014.7 |
| 20260506194559 | 80 | 15 | 0.0 | 4.0 | 0.00 | 0.00 | 0.00 | 24 | 1014.8 |
| 20260506194055 | 79 | 72 | 1.0 | 2.0 | 0.00 | 0.00 | 0.00 | 26 | 1014.6 |
| 20260506193553 | 78 | 278 | 3.0 | 4.0 | 0.00 | 0.00 | 0.00 | 25 | 1014.8 |
| 20260506193050 | 79 | 95 | 3.0 | 6.0 | 0.00 | 0.00 | 0.00 | 25 | 1015.0 |
| 20260506192547 | 79 | 85 | 2.0 | 4.0 | 0.00 | 0.00 | 0.00 | 25 | 1014.9 |
| 20260506192043 | 79 | 67 | 2.0 | 5.0 | 0.00 | 0.00 | 0.00 | 24 | 1014.9 |
| 20260506191539 | 79 | 135 | 1.0 | 5.0 | 0.00 | 0.00 | 0.00 | 25 | 1015.2 |
| 20260506191035 | 79 | 82 | 3.0 | 6.0 | 0.00 | 0.00 | 0.00 | 26 | 1015.1 |
| 20260506190533 | 79 | 125 | 3.0 | 5.0 | 0.00 | 0.00 | 0.00 | 25 | 1015.1 |
| 20260506190030 | 79 | 80 | 2.0 | 3.0 | 0.00 | 0.00 | 0.00 | 25 | 1015.2 |
| 20260506185527 | 79 | 58 | 5.0 | 5.0 | 0.00 | 0.00 | 0.00 | 26 | 1015.2 |
| 20260506185023 | 78 | 88 | 0.0 | 4.0 | 0.00 | 0.00 | 0.00 | 26 | 1015.3 |
| 20260506184521 | 78 | 106 | 2.0 | 5.0 | 0.00 | 0.00 | 0.00 | 26 | 1015.3 |
| 20260506184018 | 78 | 211 | 2.0 | 3.0 | 0.00 | 0.00 | 0.00 | 26 | 1015.5 |
| 20260506183514 | 79 | 144 | 2.0 | 3.0 | 0.00 | 0.00 | 0.00 | 26 | 1015.6 |
| 20260506183011 | 79 | 62 | 1.0 | 3.0 | 0.00 | 0.00 | 0.00 | 25 | 1015.5 |
| 20260506182508 | 78 | 112 | 4.0 | 5.0 | 0.00 | 0.00 | 0.00 | 25 | 1015.7 |
| 20260506182005 | 78 | 11 | 1.0 | 3.0 | 0.00 | 0.00 | 0.00 | 29 | 1016.0 |
| 20260506181503 | 77 | 84 | 2.0 | 3.0 | 0.00 | 0.00 | 0.00 | 28 | 1015.9 |
| 20260506181000 | 76 | 67 | 0.0 | 3.0 | 0.00 | 0.00 | 0.00 | 27 | 1016.1 |
| 20260506180456 | 77 | 100 | 3.0 | 3.0 | 0.00 | 0.00 | 0.00 | 27 | 1015.8 |
| 20260506175953 | 77 | 68 | 1.0 | 3.0 | 0.00 | 0.00 | 0.00 | 28 | 1015.8 |
| 20260506175449 | 77 | 150 | 2.0 | 4.0 | 0.00 | 0.00 | 0.00 | 28 | 1016.1 |
| 20260506174946 | 77 | 65 | 4.0 | 4.0 | 0.00 | 0.00 | 0.00 | 29 | 1015.9 |
| 20260506174444 | 77 | 122 | 3.0 | 4.0 | 0.00 | 0.00 | 0.00 | 28 | 1015.8 |
| 20260506173940 | 77 | 324 | 0.0 | 3.0 | 0.00 | 0.00 | 0.00 | 29 | 1015.6 |
| 20260506173438 | 76 | 260 | 1.0 | 2.0 | 0.00 | 0.00 | 0.00 | 31 | 1016.0 |
| 20260506172934 | 76 | 83 | 0.0 | 5.0 | 0.00 | 0.00 | 0.00 | 30 | 1016.1 |
| 20260506172432 | 77 | 161 | 1.0 | 3.0 | 0.00 | 0.00 | 0.00 | 29 | 1015.7 |
| 20260506171928 | 77 | 91 | 2.0 | 3.0 | 0.00 | 0.00 | 0.00 | 30 | 1015.9 |
| 20260506171426 | 77 | 77 | 1.0 | 4.0 | 0.00 | 0.00 | 0.00 | 29 | 1015.7 |
| 20260506170924 | 77 | 101 | 2.0 | 3.0 | 0.00 | 0.00 | 0.00 | 29 | 1016.0 |
| 20260506170419 | 77 | 118 | 0.0 | 2.0 | 0.00 | 0.00 | 0.00 | 31 | 1015.7 |
| 20260506165913 | 75 | 119 | 0.0 | 1.0 | 0.00 | 0.00 | 0.00 | 30 | 1015.9 |
| 20260506165411 | 75 | 91 | 0.0 | 4.0 | 0.00 | 0.00 | 0.00 | 30 | 1016.1 |
| 20260506164907 | 75 | 78 | 0.0 | 3.0 | 0.00 | 0.00 | 0.00 | 30 | 1015.9 |
| 20260506164403 | 74 | 51 | 0.0 | 4.0 | 0.00 | 0.00 | 0.00 | 32 | 1015.8 |
| 20260506163901 | 76 | 84 | 0.0 | 4.0 | 0.00 | 0.00 | 0.00 | 31 | 1015.9 |
| 20260506163356 | 77 | 274 | 1.0 | 3.0 | 0.00 | 0.00 | 0.00 | 30 | 1015.8 |
| 20260506162851 | 76 | 211 | 0.0 | 1.0 | 0.00 | 0.00 | 0.00 | 32 | 1016.0 |
| 20260506162349 | 76 | 89 | 1.0 | 2.0 | 0.00 | 0.00 | 0.00 | 31 | 1015.8 |
| 20260506161841 | 75 | 226 | 0.0 | 1.0 | 0.00 | 0.00 | 0.00 | 32 | 1015.8 |
| 20260506161338 | 73 | 142 | 1.0 | 2.0 | 0.00 | 0.00 | 0.00 | 34 | 1015.7 |
| 20260506160835 | 73 | 87 | 0.0 | 2.0 | 0.00 | 0.00 | 0.00 | 34 | 1015.7 |
| 20260506160332 | 72 | 271 | 0.0 | 4.0 | 0.00 | 0.00 | 0.00 | 34 | 1015.9 |
| 20260506155830 | 72 | 37 | 1.0 | 1.0 | 0.00 | 0.00 | 0.00 | 33 | 1015.9 |
| 20260506155326 | 72 | 91 | 0.0 | 3.0 | 0.00 | 0.00 | 0.00 | 34 | 1015.7 |
| 20260506153439 | 72 | 104 | 0.0 | 3.0 | 0.00 | 0.00 | 0.00 | 33 | 1016.0 |
| 20260506152937 | 72 | 91 | 0.0 | 2.0 | 0.00 | 0.00 | 0.00 | 34 | 1015.9 |
| 20260506152433 | 72 | 10 | 0.0 | 2.0 | 0.00 | 0.00 | 0.00 | 33 | 1015.9 |
| 20260506151932 | 73 | 337 | 0.0 | 0.0 | 0.00 | 0.00 | 0.00 | 33 | 1016.0 |
| 20260506151428 | 71 | 284 | 0.0 | 2.0 | 0.00 | 0.00 | 0.00 | 34 | 1015.9 |
| 20260506150926 | 70 | 217 | 0.0 | 1.0 | 0.00 | 0.00 | 0.00 | 38 | 1016.0 |
| 20260506150422 | 69 | 156 | 0.0 | 1.0 | 0.00 | 0.00 | 0.00 | 37 | 1015.8 |
| 20260506145919 | 69 | 337 | 0.0 | 1.0 | 0.00 | 0.00 | 0.00 | 36 | 1015.8 |
| 20260506145415 | 68 | 243 | 0.0 | 2.0 | 0.00 | 0.00 | 0.00 | 37 | 1015.7 |
| 20260506144913 | 68 | 195 | 0.0 | 2.0 | 0.00 | 0.00 | 0.00 | 38 | 1015.8 |
| 20260506144409 | 68 | 92 | 0.0 | 1.0 | 0.00 | 0.00 | 0.00 | 38 | 1015.9 |
| 20260506143908 | 69 | 139 | 0.0 | 2.0 | 0.00 | 0.00 | 0.00 | 38 | 1016.0 |
| 20260506143404 | 71 | 87 | 0.0 | 1.0 | 0.00 | 0.00 | 0.00 | 35 | 1015.7 |
| 20260506142903 | 70 | 312 | 0.0 | 2.0 | 0.00 | 0.00 | 0.00 | 37 | 1015.8 |
| 20260506142401 | 69 | 296 | 0.0 | 0.0 | 0.00 | 0.00 | 0.00 | 38 | 1015.7 |
| 20260506141858 | 68 | 296 | 1.0 | 1.0 | 0.00 | 0.00 | 0.00 | 40 | 1015.5 |
| 20260506141356 | 67 | 44 | 1.0 | 2.0 | 0.00 | 0.00 | 0.00 | 40 | 1015.6 |
| 20260506140854 | 68 | 220 | 0.0 | 2.0 | 0.00 | 0.00 | 0.00 | 39 | 1015.4 |
| 20260506140350 | 69 | 325 | 0.0 | 0.0 | 0.00 | 0.00 | 0.00 | 39 | 1015.4 |
| 20260506135848 | 68 | 284 | 0.0 | 1.0 | 0.00 | 0.00 | 0.00 | 40 | 1015.3 |
| 20260506135344 | 67 | 150 | 0.0 | 1.0 | 0.00 | 0.00 | 0.00 | 42 | 1015.1 |
| 20260506134840 | 65 | 324 | 0.0 | 1.0 | 0.00 | 0.00 | 0.00 | 45 | 1015.1 |
| 20260506134337 | 63 | 308 | 0.0 | 1.0 | 0.00 | 0.00 | 0.00 | 50 | 1015.2 |
| 20260506133834 | 60 | 293 | 1.0 | 2.0 | 0.00 | 0.00 | 0.00 | 52 | 1015.0 |
| 20260506133331 | 59 | 288 | 1.0 | 2.0 | 0.00 | 0.00 | 0.00 | 52 | 1015.0 |
| 20260506132828 | 59 | 296 | 2.0 | 2.0 | 0.00 | 0.00 | 0.00 | 52 | 1015.2 |
| 20260506132325 | 58 | 312 | 2.0 | 2.0 | 0.00 | 0.00 | 0.00 | 53 | 1014.9 |
| 20260506131823 | 58 | 298 | 1.0 | 2.0 | 0.00 | 0.00 | 0.00 | 54 | 1015.0 |
| 20260506131319 | 57 | 284 | 0.0 | 2.0 | 0.00 | 0.00 | 0.00 | 54 | 1015.0 |
| 20260506130816 | 57 | 300 | 1.0 | 2.0 | 0.00 | 0.00 | 0.00 | 56 | 1014.8 |
| 20260506130312 | 57 | 301 | 2.0 | 2.0 | 0.00 | 0.00 | 0.00 | 54 | 1014.4 |
| 20260506125811 | 57 | 281 | 1.0 | 2.0 | 0.00 | 0.00 | 0.00 | 55 | 1014.6 |
| 20260506125308 | 57 | 280 | 2.0 | 2.0 | 0.00 | 0.00 | 0.00 | 53 | 1014.4 |
| 20260506124807 | 57 | 297 | 2.0 | 2.0 | 0.00 | 0.00 | 0.00 | 54 | 1014.4 |
| 20260506124303 | 57 | 295 | 1.0 | 2.0 | 0.00 | 0.00 | 0.00 | 53 | 1014.7 |
| 20260506123801 | 57 | 304 | 2.0 | 2.0 | 0.00 | 0.00 | 0.00 | 53 | 1014.6 |
| 20260506123300 | 57 | 297 | 1.0 | 2.0 | 0.00 | 0.00 | 0.00 | 52 | 1014.4 |
| 20260506122756 | 57 | 298 | 2.0 | 2.0 | 0.00 | 0.00 | 0.00 | 52 | 1014.3 |
| 20260506122253 | 57 | 289 | 1.0 | 2.0 | 0.00 | 0.00 | 0.00 | 51 | 1014.0 |
| 20260506121751 | 58 | 262 | 2.0 | 3.0 | 0.00 | 0.00 | 0.00 | 51 | 1014.3 |
| 20260506121248 | 58 | 298 | 1.0 | 2.0 | 0.00 | 0.00 | 0.00 | 51 | 1014.1 |
| 20260506120745 | 57 | 276 | 2.0 | 2.0 | 0.00 | 0.00 | 0.00 | 51 | 1014.2 |
| 20260506120243 | 58 | 301 | 2.0 | 2.0 | 0.00 | 0.00 | 0.00 | 51 | 1014.1 |
| 20260506115740 | 58 | 289 | 2.0 | 2.0 | 0.00 | 0.00 | 0.00 | 51 | 1013.9 |
| 20260506115238 | 58 | 298 | 2.0 | 2.0 | 0.00 | 0.00 | 0.00 | 50 | 1014.1 |
| 20260506114736 | 58 | 291 | 0.0 | 3.0 | 0.00 | 0.00 | 0.00 | 51 | 1013.9 |
| 20260506114233 | 58 | 269 | 2.0 | 3.0 | 0.00 | 0.00 | 0.00 | 52 | 1013.9 |
| 20260506113732 | 59 | 312 | 0.0 | 2.0 | 0.00 | 0.00 | 0.00 | 50 | 1013.9 |
| 20260506113229 | 59 | 300 | 1.0 | 3.0 | 0.00 | 0.00 | 0.00 | 50 | 1014.0 |
| 20260506112725 | 59 | 305 | 2.0 | 2.0 | 0.00 | 0.00 | 0.00 | 50 | 1013.9 |
| 20260506112223 | 59 | 284 | 1.0 | 2.0 | 0.00 | 0.00 | 0.00 | 49 | 1014.0 |
| 20260506111720 | 59 | 281 | 1.0 | 2.0 | 0.00 | 0.00 | 0.00 | 48 | 1013.7 |
| 20260506111218 | 59 | 287 | 1.0 | 2.0 | 0.00 | 0.00 | 0.00 | 48 | 1013.8 |
| 20260506110714 | 59 | 278 | 1.0 | 2.0 | 0.00 | 0.00 | 0.00 | 49 | 1014.0 |
| 20260506110212 | 59 | 295 | 1.0 | 2.0 | 0.00 | 0.00 | 0.00 | 49 | 1013.9 |
| 20260506105709 | 59 | 286 | 1.0 | 2.0 | 0.00 | 0.00 | 0.00 | 49 | 1013.7 |
| 20260506105206 | 59 | 277 | 1.0 | 2.0 | 0.00 | 0.00 | 0.00 | 47 | 1013.9 |
| 20260506104704 | 59 | 281 | 1.0 | 2.0 | 0.00 | 0.00 | 0.00 | 47 | 1013.9 |
| 20260506104201 | 60 | 292 | 1.0 | 2.0 | 0.00 | 0.00 | 0.00 | 49 | 1013.7 |
| 20260506103658 | 60 | 271 | 2.0 | 3.0 | 0.00 | 0.00 | 0.00 | 49 | 1013.8 |
| 20260506103155 | 60 | 292 | 2.0 | 2.0 | 0.00 | 0.00 | 0.00 | 47 | 1013.7 |
| 20260506102653 | 60 | 291 | 1.0 | 2.0 | 0.00 | 0.00 | 0.00 | 48 | 1013.8 |
| 20260506102150 | 60 | 287 | 2.0 | 2.0 | 0.00 | 0.00 | 0.00 | 47 | 1013.6 |
| 20260506101647 | 60 | 269 | 0.0 | 2.0 | 0.00 | 0.00 | 0.00 | 47 | 1013.7 |
| 20260506101144 | 60 | 279 | 1.0 | 2.0 | 0.00 | 0.00 | 0.00 | 47 | 1013.6 |
| 20260506100642 | 60 | 287 | 1.0 | 2.0 | 0.00 | 0.00 | 0.00 | 47 | 1013.4 |
| 20260506100140 | 60 | 295 | 1.0 | 2.0 | 0.00 | 0.00 | 0.00 | 47 | 1013.4 |
| 20260506095638 | 60 | 287 | 1.0 | 2.0 | 0.00 | 0.00 | 0.00 | 47 | 1013.2 |
| 20260506095134 | 60 | 279 | 2.0 | 2.0 | 0.00 | 0.00 | 0.00 | 47 | 1013.2 |
| 20260506094632 | 61 | 283 | 2.0 | 2.0 | 0.00 | 0.00 | 0.00 | 46 | 1013.2 |
| 20260506094130 | 61 | 295 | 2.0 | 2.0 | 0.00 | 0.00 | 0.00 | 45 | 1013.1 |
| 20260506093628 | 61 | 279 | 2.0 | 2.0 | 0.00 | 0.00 | 0.00 | 45 | 1013.1 |
| 20260506093125 | 61 | 272 | 1.0 | 2.0 | 0.00 | 0.00 | 0.00 | 46 | 1013.3 |
| 20260506092623 | 61 | 284 | 0.0 | 2.0 | 0.00 | 0.00 | 0.00 | 46 | 1013.2 |
| 20260506092119 | 61 | 280 | 2.0 | 2.0 | 0.00 | 0.00 | 0.00 | 45 | 1013.5 |
| 20260506091618 | 61 | 265 | 1.0 | 2.0 | 0.00 | 0.00 | 0.00 | 45 | 1013.1 |
| 20260506091115 | 62 | 289 | 0.0 | 2.0 | 0.00 | 0.00 | 0.00 | 43 | 1012.9 |
| 20260506090613 | 62 | 287 | 1.0 | 2.0 | 0.00 | 0.00 | 0.00 | 43 | 1013.1 |
| 20260506090108 | 62 | 275 | 1.0 | 2.0 | 0.00 | 0.00 | 0.00 | 42 | 1012.9 |
| 20260506085606 | 62 | 291 | 1.0 | 2.0 | 0.00 | 0.00 | 0.00 | 42 | 1012.9 |
| 20260506085102 | 63 | 284 | 0.0 | 2.0 | 0.00 | 0.00 | 0.00 | 42 | 1012.9 |
| 20260506084559 | 63 | 280 | 1.0 | 1.0 | 0.00 | 0.00 | 0.00 | 43 | 1012.9 |
| 20260506084055 | 63 | 290 | 1.0 | 2.0 | 0.00 | 0.00 | 0.00 | 42 | 1013.1 |
| 20260506083552 | 64 | 268 | 0.0 | 1.0 | 0.00 | 0.00 | 0.00 | 41 | 1013.1 |
| 20260506083050 | 64 | 268 | 0.0 | 1.0 | 0.00 | 0.00 | 0.00 | 41 | 1013.0 |
| 20260506082546 | 65 | 299 | 0.0 | 1.0 | 0.00 | 0.00 | 0.00 | 40 | 1012.9 |
| 20260506082042 | 65 | 271 | 0.0 | 2.0 | 0.00 | 0.00 | 0.00 | 41 | 1012.9 |
| 20260506081540 | 65 | 312 | 0.0 | 2.0 | 0.00 | 0.00 | 0.00 | 39 | 1013.0 |
| 20260506081037 | 65 | 315 | 0.0 | 2.0 | 0.00 | 0.00 | 0.00 | 40 | 1013.0 |
| 20260506080535 | 65 | 104 | 0.0 | 2.0 | 0.00 | 0.00 | 0.00 | 38 | 1013.1 |
| 20260506073519 | 66 | 89 | 0.0 | 3.0 | 0.00 | 0.00 | 0.00 | 38 | 1012.9 |
| 20260506073016 | 65 | 311 | 1.0 | 1.0 | 0.00 | 0.00 | 0.00 | 38 | 1013.0 |
| 20260506072513 | 65 | 82 | 1.0 | 2.0 | 0.00 | 0.00 | 0.00 | 38 | 1012.7 |
| 20260506072010 | 65 | 81 | 0.0 | 1.0 | 0.00 | 0.00 | 0.00 | 38 | 1013.0 |
| 20260506071508 | 66 | 280 | 0.0 | 1.0 | 0.00 | 0.00 | 0.00 | 38 | 1013.0 |
| 20260506071005 | 66 | 307 | 1.0 | 1.0 | 0.00 | 0.00 | 0.00 | 38 | 1012.9 |
| 20260506070502 | 66 | 115 | 0.0 | 2.0 | 0.00 | 0.00 | 0.00 | 38 | 1012.9 |
| 20260506062439 | 65 | 284 | 0.0 | 1.0 | 0.00 | 0.00 | 0.00 | 39 | 1012.5 |
| 20260506061935 | 65 | 319 | 0.0 | 0.0 | 0.00 | 0.00 | 0.00 | 37 | 1012.5 |
| 20260506061432 | 65 | 309 | 0.0 | 1.0 | 0.00 | 0.00 | 0.00 | 37 | 1012.7 |
| 20260506060930 | 65 | 300 | 0.0 | 1.0 | 0.00 | 0.00 | 0.00 | 38 | 1012.6 |
| 20260506060428 | 65 | 297 | 0.0 | 1.0 | 0.00 | 0.00 | 0.00 | 37 | 1012.5 |
| 20260506051400 | 65 | 284 | 0.0 | 1.0 | 0.00 | 0.00 | 0.00 | 35 | 1012.5 |
| 20260506050857 | 65 | 284 | 0.0 | 1.0 | 0.00 | 0.00 | 0.00 | 37 | 1012.1 |
| 20260506050355 | 65 | 284 | 0.0 | 2.0 | 0.00 | 0.00 | 0.00 | 35 | 1012.2 |
| 20260506044845 | 66 | 333 | 0.0 | 1.0 | 0.00 | 0.00 | 0.00 | 35 | 1012.0 |
| 20260506044343 | 67 | 284 | 0.0 | 1.0 | 0.00 | 0.00 | 0.00 | 34 | 1012.0 |
| 20260506043840 | 67 | 284 | 0.0 | 1.0 | 0.00 | 0.00 | 0.00 | 34 | 1011.9 |
| 20260506043337 | 67 | 284 | 0.0 | 0.0 | 0.00 | 0.00 | 0.00 | 34 | 1011.8 |
| 20260506042835 | 68 | 284 | 0.0 | 1.0 | 0.00 | 0.00 | 0.00 | 33 | 1011.9 |
| 20260506042334 | 68 | 252 | 0.0 | 1.0 | 0.00 | 0.00 | 0.00 | 33 | 1011.8 |
| 20260506041832 | 68 | 244 | 0.0 | 1.0 | 0.00 | 0.00 | 0.00 | 32 | 1011.6 |
| 20260506041329 | 69 | 292 | 0.0 | 1.0 | 0.00 | 0.00 | 0.00 | 34 | 1011.8 |
| 20260506040826 | 69 | 78 | 0.0 | 0.0 | 0.00 | 0.00 | 0.00 | 32 | 1011.5 |
| 20260506040323 | 69 | 324 | 0.0 | 1.0 | 0.00 | 0.00 | 0.00 | 32 | 1011.5 |
| 20260506035820 | 69 | 250 | 0.0 | 1.0 | 0.00 | 0.00 | 0.00 | 32 | 1011.4 |
| 20260506035317 | 69 | 301 | 0.0 | 0.0 | 0.00 | 0.00 | 0.00 | 32 | 1011.2 |
| 20260506034814 | 69 | 232 | 0.0 | 0.0 | 0.00 | 0.00 | 0.00 | 31 | 1011.3 |
| 20260506034311 | 70 | 134 | 0.0 | 1.0 | 0.00 | 0.00 | 0.00 | 31 | 1011.4 |
| 20260506033808 | 70 | 258 | 0.0 | 0.0 | 0.00 | 0.00 | 0.00 | 32 | 1011.2 |
| 20260506033305 | 70 | 337 | 0.0 | 1.0 | 0.00 | 0.00 | 0.00 | 31 | 1011.3 |
| 20260506032802 | 70 | 309 | 0.0 | 2.0 | 0.00 | 0.00 | 0.00 | 31 | 1011.2 |
| 20260506032259 | 71 | 146 | 0.0 | 1.0 | 0.00 | 0.00 | 0.00 | 30 | 1011.3 |
| 20260506031755 | 71 | 104 | 0.0 | 3.0 | 0.00 | 0.00 | 0.00 | 30 | 1010.9 |
| 20260506031253 | 71 | 8 | 1.0 | 2.0 | 0.00 | 0.00 | 0.00 | 30 | 1010.8 |
| 20260506030751 | 71 | 132 | 0.0 | 2.0 | 0.00 | 0.00 | 0.00 | 30 | 1010.7 |
| 20260506030248 | 71 | 175 | 0.0 | 3.0 | 0.00 | 0.00 | 0.00 | 30 | 1010.8 |
| 20260506025745 | 71 | 2 | 0.0 | 3.0 | 0.00 | 0.00 | 0.00 | 30 | 1010.5 |
| 20260506025241 | 72 | 96 | 1.0 | 2.0 | 0.00 | 0.00 | 0.00 | 29 | 1010.7 |
| 20260506024738 | 72 | 89 | 3.0 | 5.0 | 0.00 | 0.00 | 0.00 | 29 | 1010.7 |
| 20260506024235 | 72 | 61 | 0.0 | 5.0 | 0.00 | 0.00 | 0.00 | 28 | 1010.4 |
| 20260506023731 | 72 | 109 | 2.0 | 4.0 | 0.00 | 0.00 | 0.00 | 28 | 1010.4 |
| 20260506023229 | 73 | 108 | 2.0 | 4.0 | 0.00 | 0.00 | 0.00 | 28 | 1010.4 |
| 20260506022725 | 73 | 94 | 3.0 | 3.0 | 0.00 | 0.00 | 0.00 | 28 | 1010.2 |
| 20260506022223 | 73 | 93 | 2.0 | 5.0 | 0.00 | 0.00 | 0.00 | 28 | 1010.1 |
| 20260506021721 | 73 | 71 | 2.0 | 3.0 | 0.00 | 0.00 | 0.00 | 28 | 1010.0 |
| 20260506021218 | 73 | 51 | 2.0 | 4.0 | 0.00 | 0.00 | 0.00 | 28 | 1009.9 |
| 20260506020714 | 74 | 117 | 2.0 | 5.0 | 0.00 | 0.00 | 0.00 | 28 | 1010.0 |
| 20260506020212 | 74 | 88 | 3.0 | 5.0 | 0.00 | 0.00 | 0.00 | 27 | 1009.8 |
| 20260506015709 | 75 | 57 | 5.0 | 5.0 | 0.00 | 0.00 | 0.00 | 26 | 1009.9 |
| 20260506015207 | 76 | 123 | 1.0 | 5.0 | 0.00 | 0.00 | 0.00 | 25 | 1009.8 |
| 20260506014704 | 76 | 205 | 0.0 | 4.0 | 0.00 | 0.00 | 0.00 | 26 | 1009.7 |
| 20260506014200 | 76 | 351 | 0.0 | 5.0 | 0.00 | 0.00 | 0.00 | 26 | 1009.8 |
| 20260506013658 | 75 | 73 | 1.0 | 5.0 | 0.00 | 0.00 | 0.00 | 26 | 1009.7 |
| 20260506013155 | 75 | 143 | 2.0 | 5.0 | 0.00 | 0.00 | 0.00 | 26 | 1009.8 |
| 20260506012651 | 75 | 111 | 0.0 | 7.0 | 0.00 | 0.00 | 0.00 | 26 | 1009.7 |
| 20260506012148 | 77 | 46 | 2.0 | 5.0 | 0.00 | 0.00 | 0.00 | 26 | 1009.7 |
| 20260506011645 | 77 | 51 | 2.0 | 6.0 | 0.00 | 0.00 | 0.00 | 26 | 1009.7 |
| 20260506011141 | 78 | 134 | 4.0 | 4.0 | 0.00 | 0.00 | 0.00 | 25 | 1009.5 |
| 20260506010640 | 79 | 80 | 3.0 | 4.0 | 0.00 | 0.00 | 0.00 | 25 | 1009.6 |
| 20260506010137 | 78 | 89 | 3.0 | 6.0 | 0.00 | 0.00 | 0.00 | 25 | 1009.5 |
| 20260506005634 | 77 | 117 | 2.0 | 6.0 | 0.00 | 0.00 | 0.00 | 26 | 1009.6 |
| 20260506005130 | 77 | 19 | 0.0 | 4.0 | 0.00 | 0.00 | 0.00 | 26 | 1009.5 |
| 20260506004627 | 78 | 80 | 0.0 | 4.0 | 0.00 | 0.00 | 0.00 | 26 | 1009.2 |
| 20260506004124 | 78 | 79 | 2.0 | 6.0 | 0.00 | 0.00 | 0.00 | 26 | 1009.5 |